Tracking 19242 objects as of 15-Aug-2018
HD Live streaming from Space Station
objects crossing your sky now

FLOCK 2K 02

Track FLOCK 2K 02 now!
10-day predictions
FLOCK 2K 02 is classified as:


NORAD ID: 42853
Int'l Code: 2017-042AE
Perigee: 462.7 km
Apogee: 475.2 km
Inclination: 97.0 °
Period: 93.8 minutes
Semi major axis: 6839 km
RCS: Unknown
Launch date: July 14, 2017
Source: United States (US)
Launch site: TYURATAM MISSILE AND SPACE COMPLEX (TTMTR)
aabbcc
Your satellite tracking list
Your tracking list is empty




NASA's NSSDC Master Catalog

Two Line Element Set (TLE):
1 42853U 17042AE  18226.75080385  .00002496  00000-0  76329-4 0  9993
2 42853  96.9741 119.4216 0009086 264.8855  95.1352 15.34702485 60566
Source of the keplerian elements: AFSPC